Location: Unspecified
(45.3999°N, 88.1269°W)
Time: 01:07:46
(UTC-06:00)

Cosmos 1674 - Visible Passes

Search period start: 22 January 2019 00:00
Search period end: 01 February 2019 00:00
Orbit: 497 x 519 km, 82.5° (Epoch: 21 January)

Date Brightness Start Highest point End Pass type
(mag) Time Alt. Az. Time Alt. Az. Time Alt. Az.
22 Jan 6.1 18:19:17 10° WNW 18:19:46 10° WNW 18:20:15 10° WNW visible
23 Jan 5.7 18:00:25 10° W 18:02:14 13° WNW 18:04:04 10° NW visible
24 Jan 5.6 17:42:18 10° WSW 17:44:44 16° WNW 17:47:13 10° NNW visible
25 Jan 5.4 17:24:22 10° WSW 17:27:15 20° WNW 17:30:10 10° NNW visible
